[[{"header":{"parameterUnit":"m.s-1","parameterCategory":1,"la1":30.2991,"la2":30.254,"lo1":-89.0895,"lo2":-89.0444,"dy":0.0017,"dx":0.0017,"nx":28,"ny":28,"refTime":"2024-12-11T09:00:00:Z","depth":0,"parameterNumber":2,"parameterNumberName":"U-component_of_WINDS"},"data":[0,0,0,0,0,0,0,0,0,0,0,0,0,0,0,0,0,0,0,0,0,0,0,0,0,0,0,0,0,0,0,0,0,0,0,0,0,0,0,0,0,0,0,0,0,0,0,0,0,0,0,0,0,0,0,0,0,0,-3.6772,-3.6773,0,-3.6781,-3.6781,-3.6781,-3.6648,-3.6644,-3.6641,-3.6637,-3.6648,-3.6652,-3.6656,0,0,0,0,0,0,0,0,0,0,0,0,0,-3.6643,-3.6646,-3.6772,-3.6773,-3.6773,-3.6781,-3.6781,-3.6781,-3.6649,-3.6644,-3.664,-3.6636,-3.6647,-3.6652,-3.6656,0,0,0,0,0,0,0,0,0,0,0,0,0,-3.668,-3.6647,-3.6772,-3.6707,-3.6702,-3.6781,-3.6781,-3.6781,-3.665,-3.6644,-3.6639,-3.6634,-3.6646,-3.6651,-3.6657,-3.6799,0,0,-3.6673,-3.6676,0,0,0,0,0,0,0,0,-3.6678,-3.6685,-3.6717,-3.6712,-3.6706,-3.6708,-3.6739,-3.6787,-3.6651,-3.667,-3.6637,-3.6631,-3.6673,-3.6676,-3.6689,-3.68,-3.68,-3.6674,-3.6677,-3.6679,-3.6681,0,0,0,0,0,0,0,-3.6676,-3.6684,-3.6776,-3.6718,-3.6711,-3.6678,-3.6678,-3.6748,-3.6702,-3.6667,-3.6658,-3.6661,-3.6669,-3.6684,-3.6689,-3.68,-3.6674,-3.6679,-3.6682,-3.6684,-3.7028,-3.7034,0,0,0,0,0,0,-3.6682,-3.6683,-3.6776,-3.6776,-3.6678,-3.6685,-3.6684,-3.6713,-3.67,-3.6693,-3.6665,-3.6654,-3.6678,-3.6682,-3.6688,-3.6855,-3.6679,-3.6685,-3.6688,-3.7022,-3.7029,-3.7036,0,0,0,0,0,0,-3.6679,-3.6691,-3.6775,-3.6727,-3.6735,-3.6693,-3.6726,-3.6716,-3.6731,-3.6699,-3.669,-3.669,-3.6673,-3.6681,-3.6772,-3.6854,-3.6687,-3.6692,-3.7015,-3.7024,-3.7033,-3.719,0,0,0,0,0,0,-3.6676,-3.6691,-3.6745,-3.6729,-3.6738,-3.686,-3.6731,-3.672,-3.6741,-3.6727,-3.6719,-3.6713,-3.667,-3.6765,-3.6778,-3.6858,-3.6696,-3.7008,-3.7019,-3.703,-3.7178,-3.7203,-3.7225,0,0,0,0,0,-3.6672,-3.6789,-3.6748,-3.676,-3.6804,-3.6864,-3.687,-3.6817,-3.6748,-3.6802,-3.6781,-3.6713,-3.6842,-3.6776,-3.6789,-3.6872,-3.7003,-3.7016,-3.7029,-3.7167,-3.7198,-3.7225,0,0,0,0,0,0,-3.6817,-3.6786,-3.674,-3.6855,-3.6864,-3.6842,-3.6908,-3.6852,-3.688,-3.6866,-3.68,-3.6799,-3.6902,-3.6896,-3.6822,-3.701,-3.691,-3.6927,-3.7011,-3.704,-3.7063,-3.7064,-3.6701,0,0,0,0,0,-3.6862,-3.6913,-3.6883,-3.6988,-3.6994,-3.6951,-3.6975,-3.6934,-3.694,-3.6943,-3.6928,-3.6937,-3.6979,-3.7009,-3.7046,-3.7175,-3.7172,-3.7239,-3.7263,-3.7282,-3.7298,-3.7367,-3.7396,-3.7079,-3.7079,-3.7079,0,0,-3.6956,-3.6945,-3.6982,-3.7017,-3.7018,-3.7073,-3.6955,-3.7018,-3.7058,-3.6952,-3.7038,-3.7028,-3.7033,-3.7145,-3.7193,-3.7143,-3.7385,-3.7299,-3.7315,-3.732,-3.7383,-3.7413,-3.744,-3.7088,-3.7086,-3.7085,0,0,-3.7156,-3.7153,-3.724,-3.7243,-3.7246,-3.7217,-3.7238,-3.7224,-3.7213,-3.7298,-3.722,-3.7267,-3.7341,-3.7349,-3.7362,-3.7564,-3.7504,-3.7578,-3.7704,-3.7771,-3.7796,-3.7818,-3.7892,-3.7919,-3.7593,-3.7594,-3.7594,0,-3.7273,-3.7353,-3.7292,-3.7361,-3.7379,-3.7284,-3.7372,-3.7378,-3.7394,-3.7409,-3.7352,-3.7443,-3.744,-3.7552,-3.7602,-3.7615,-3.7638,-3.758,-3.7797,-3.7819,-3.7838,-3.7908,-3.7935,-3.7603,-3.7602,-3.7601,-3.76,0,-3.7497,-3.7553,-3.7623,-3.764,-3.7666,-3.7744,-3.7696,-3.7729,-3.7685,-3.7662,-3.775,-3.7742,-3.7776,-3.7799,-3.7757,-3.7906,-3.7875,-3.7809,-3.7708,-3.7879,-3.7943,-3.7969,-3.7616,-3.7613,-3.761,-3.7608,0,0,-3.7791,-3.7772,-3.7799,-3.7806,-3.7802,-3.7845,-3.7918,-3.7951,-3.7981,-3.7995,-3.8056,-3.812,-3.8059,-3.8074,-3.8032,-3.8091,-3.8253,-3.8017,-3.8016,-3.8063,-3.8418,-3.847,-3.8502,-3.8212,-3.8217,-3.8221,-3.8418,0,-3.7987,-3.8112,-3.8059,-3.8189,-3.8241,-3.8151,-3.8215,-3.822,-3.82,-3.8241,-3.8218,-3.8266,-3.818,-3.8189,-3.8243,-3.8222,-3.8324,-3.8207,-3.827,-3.8273,-3.8274,-3.8535,-3.8589,-3.8777,-3.8443,-3.8447,-3.845,0,-3.8233,-3.8256,-3.8392,-3.8378,-3.8398,-3.8457,-3.8483,-3.8523,-3.8526,-3.8507,-3.8524,-3.8468,-3.854,-3.8438,-3.8537,-3.8459,-3.8481,-3.8474,-3.848,-3.8486,-3.8374,-3.855,-3.8835,-3.8864,-3.8489,-3.8486,-3.8483,0,-3.8436,-3.8501,-3.859,-3.8598,-3.8585,-3.8628,-3.8625,-3.8623,-3.8646,-3.8668,-3.8683,-3.8714,-3.8732,-3.8757,-3.8711,-3.8641,-3.8817,-3.8711,-3.8804,-3.8806,-3.8847,-3.8846,-3.9143,-3.8859,-3.8858,-3.8858,-3.8857,0,-3.8662,-3.8749,-3.8681,-3.8737,-3.8832,-3.877,-3.8865,-3.8852,-3.8851,-3.8902,-3.8826,-3.8876,-3.8811,-3.8855,-3.882,-3.8908,-3.8916,-3.8903,-3.8893,-3.8911,-3.8913,-3.8927,-3.8913,-3.8865,-3.8863,-3.8862,-3.8861,0,-3.8906,-3.8864,-3.8956,-3.8935,-3.8932,-3.9003,-3.8985,-3.9036,-3.9009,-3.9075,-3.9087,-3.9046,-3.9094,-3.905,-3.9096,-3.9072,-3.919,-3.916,-3.9189,-3.9181,-3.9278,-3.927,-3.9595,-3.9635,-3.9324,-3.9327,-3.933,0,-3.9054,-3.9118,-3.9104,-3.9133,-3.9134,-3.9181,-3.9204,-3.9145,-3.9173,-3.9181,-3.9232,-3.9272,-3.9302,-3.9383,-3.9358,-3.9392,-3.9364,-3.9475,-3.9369,-3.9385,-3.9368,-3.9366,-3.9372,-3.9498,-3.9502,-3.9505,-3.9507,0,-3.9322,-3.9297,-3.9333,-3.9362,-3.9392,-3.9412,-3.9426,-3.9454,-3.9393,-3.9428,-3.9475,-3.9499,-3.9545,-3.9587,-3.9614,-3.961,-3.955,-3.954,-3.9564,-3.9585,-3.96,-3.9595,-3.925,-3.9534,-3.9531,-3.9529,-3.9528,-3.9527,-3.9523,-3.9577,-3.9575,-3.9618,-3.9622,-3.9637,-3.9684,-3.9662,-3.9701,-3.9734,-3.9696,-3.9755,-3.9756,-3.9785,-3.9789,-3.9834,-3.9788,-3.9822,-3.9831,-3.9841,-3.9856,-3.9591,-3.9839,-3.9838,-3.9837,-3.9836,-3.9836,0,-3.9789,-3.9783,-3.9822,-3.9844,-3.9878,-3.9816,-3.9828,-3.9861,-3.9914,-3.9919,-3.995,-4.0005,-4.0046,-4.0023,-4.0058,-4.0098,-4.0072,-4.011,-4.0107,-4.0108,-3.9895,-3.9872,-4.0131,-4.0131,-4.0131,-4.0131,-4.0131,-4.0131,-3.9931,-4.0019,-3.9994,-4.0083,-4.0076,-4.0133,-4.0146,-4.0159,-4.0164,-4.0228,-4.0261,-4.0246,-4.0241,-4.0274,-4.0309,-4.0301,-4.0318,-4.0367,-4.035,-4.0152,-4.0123,-4.0095,-4.0073,-4.0371,-4.0371,-4.0559,-4.0561,-4.0562]},{"header":{"parameterUnit":"m.s-1","parameterCategory":1,"la1":30.2991,"la2":30.254,"lo1":-89.0895,"lo2":-89.0444,"dy":0.0017,"dx":0.0017,"nx":28,"ny":28,"refTime":"2024-12-11T09:00:00:Z","depth":0,"parameterNumber":3,"parameterNumberName":"V-component_of_WINDS"},"data":[0,0,0,0,0,0,0,0,0,0,0,0,0,0,0,0,0,0,0,0,0,0,0,0,0,0,0,0,0,0,0,0,0,0,0,0,0,0,0,0,0,0,0,0,0,0,0,0,0,0,0,0,0,0,0,0,0,0,-3.8178,-3.8179,0,-3.8246,-3.8247,-3.8247,-3.8182,-3.8179,-3.8177,-3.8174,-3.8242,-3.8246,-3.825,0,0,0,0,0,0,0,0,0,0,0,0,0,-3.7991,-3.7995,-3.8178,-3.8179,-3.818,-3.8246,-3.8247,-3.8248,-3.8183,-3.8179,-3.8176,-3.8173,-3.8241,-3.8246,-3.8251,0,0,0,0,0,0,0,0,0,0,0,0,0,-3.8067,-3.7996,-3.8178,-3.8156,-3.8154,-3.8246,-3.8247,-3.8248,-3.8183,-3.8179,-3.8175,-3.8172,-3.8239,-3.8245,-3.8251,-3.8368,0,0,-3.8271,-3.8273,0,0,0,0,0,0,0,0,-3.8063,-3.8074,-3.8158,-3.8157,-3.8156,-3.8202,-3.8205,-3.8288,-3.8184,-3.8172,-3.8174,-3.817,-3.8232,-3.8238,-3.8259,-3.8371,-3.8374,-3.8271,-3.8275,-3.8278,-3.8279,0,0,0,0,0,0,0,-3.8057,-3.807,-3.8205,-3.8159,-3.8158,-3.8141,-3.8148,-3.8221,-3.8223,-3.8173,-3.8168,-3.8177,-3.823,-3.8253,-3.826,-3.8375,-3.8271,-3.8277,-3.828,-3.8283,-3.8585,-3.8589,0,0,0,0,0,0,-3.8055,-3.8067,-3.8203,-3.8207,-3.8099,-3.8148,-3.8155,-3.8191,-3.8222,-3.8223,-3.8181,-3.8174,-3.8245,-3.8253,-3.8263,-3.8401,-3.8278,-3.8284,-3.8287,-3.858,-3.8586,-3.859,0,0,0,0,0,0,-3.8051,-3.8068,-3.82,-3.8136,-3.8151,-3.8155,-3.8196,-3.8194,-3.8217,-3.8228,-3.8227,-3.8204,-3.8242,-3.8254,-3.8342,-3.8403,-3.8286,-3.8292,-3.8575,-3.8582,-3.8588,-3.8679,0,0,0,0,0,0,-3.8046,-3.8067,-3.8112,-3.8137,-3.8155,-3.828,-3.82,-3.8198,-3.8229,-3.8221,-3.825,-3.8251,-3.824,-3.8333,-3.8348,-3.8409,-3.8297,-3.857,-3.8578,-3.8586,-3.8671,-3.8688,-3.8703,0,0,0,0,0,-3.804,-3.8135,-3.8114,-3.8131,-3.8211,-3.8283,-3.8293,-3.8279,-3.8234,-3.8279,-3.8285,-3.825,-3.8393,-3.8343,-3.8359,-3.8423,-3.8566,-3.8576,-3.8585,-3.8664,-3.8685,-3.8702,0,0,0,0,0,0,-3.8116,-3.8138,-3.8115,-3.8222,-3.8251,-3.8272,-3.8329,-3.8302,-3.8345,-3.8335,-3.8315,-3.8322,-3.8416,-3.8428,-3.8371,-3.8537,-3.8472,-3.8486,-3.8526,-3.8546,-3.8562,-3.8557,-3.8302,0,0,0,0,0,-3.8145,-3.8203,-3.8218,-3.831,-3.8326,-3.8325,-3.8356,-3.8342,-3.8372,-3.8384,-3.8397,-3.8426,-3.8478,-3.8512,-3.856,-3.8672,-3.8677,-3.8723,-3.8739,-3.8752,-3.8764,-3.8824,-3.8845,-3.8621,-3.8621,-3.8621,0,0,-3.8206,-3.8225,-3.8263,-3.8326,-3.8347,-3.8406,-3.8336,-3.8402,-3.8445,-3.8394,-3.8478,-3.8489,-3.852,-3.8621,-3.8665,-3.8633,-3.8827,-3.8764,-3.8775,-3.878,-3.8836,-3.8857,-3.8876,-3.8628,-3.8627,-3.8626,0,0,-3.8348,-3.8368,-3.8447,-3.847,-3.8503,-3.8501,-3.852,-3.8545,-3.855,-3.8635,-3.8597,-3.8648,-3.8737,-3.8762,-3.8785,-3.8935,-3.8904,-3.8951,-3.9034,-3.9093,-3.911,-3.9126,-3.9179,-3.9199,-3.8963,-3.8963,-3.8963,0,-3.842,-3.8508,-3.8491,-3.856,-3.8588,-3.8544,-3.8624,-3.8646,-3.8693,-3.8714,-3.8677,-3.8788,-3.8806,-3.8912,-3.8948,-3.8969,-3.8989,-3.8948,-3.9109,-3.9124,-3.9139,-3.919,-3.921,-3.8968,-3.8968,-3.8967,-3.8967,0,-3.8595,-3.8657,-3.8716,-3.8763,-3.8798,-3.8872,-3.8865,-3.8903,-3.8886,-3.8888,-3.8974,-3.8994,-3.9045,-3.9069,-3.9053,-3.9172,-3.9151,-3.9112,-3.9047,-3.9166,-3.9214,-3.9233,-3.8976,-3.8974,-3.8973,-3.8971,0,0,-3.8788,-3.8824,-3.8847,-3.8867,-3.89,-3.8947,-3.9018,-3.9068,-3.9101,-3.9134,-3.9193,-3.9269,-3.9233,-3.9261,-3.9246,-3.9297,-3.9415,-3.9252,-3.9252,-3.9282,-3.9548,-3.9578,-3.9601,-3.9394,-3.9398,-3.94,-3.9545,0,-3.8932,-3.9056,-3.9042,-3.9161,-3.9217,-3.9175,-3.9237,-3.9263,-3.9267,-3.9315,-3.9317,-3.9372,-3.932,-3.9336,-3.9385,-3.9391,-3.9468,-3.938,-3.9449,-3.9451,-3.9444,-3.9626,-3.9658,-3.9794,-3.9564,-3.9567,-3.9569,0,-3.9116,-3.9157,-3.9281,-3.9305,-3.9328,-3.9384,-3.9429,-3.9475,-3.9503,-3.9502,-3.9532,-3.9509,-3.9579,-3.9511,-3.9608,-3.9548,-3.9575,-3.9582,-3.9587,-3.9594,-3.9519,-3.9639,-3.9837,-3.9858,-3.9598,-3.9596,-3.9594,0,-3.9246,-3.9331,-3.9417,-3.9435,-3.9465,-3.9505,-3.9519,-3.9544,-3.9575,-3.9613,-3.9633,-3.9679,-3.9705,-3.9741,-3.973,-3.9682,-3.9829,-3.976,-3.983,-3.9831,-3.9864,-3.9863,-4.0071,-3.988,-3.988,-3.9879,-3.9879,0,-3.9408,-3.9486,-3.9475,-3.9528,-3.9614,-3.9596,-3.9681,-3.9689,-3.9712,-3.9765,-3.973,-3.9781,-3.9763,-3.9812,-3.9804,-3.9885,-3.9897,-3.9897,-3.9895,-3.9902,-3.9902,-3.992,-3.9911,-3.9885,-3.9883,-3.9882,-3.9881,0,-3.9568,-3.9564,-3.9655,-3.9675,-3.9682,-3.9744,-3.9761,-3.981,-3.981,-3.9878,-3.9892,-3.9892,-3.9948,-3.9941,-4.0003,-3.9997,-4.0099,-4.0084,-4.009,-4.0087,-4.0157,-4.0151,-4.0386,-4.0416,-4.0204,-4.0206,-4.0208,0,-3.9673,-3.9732,-3.9759,-3.9792,-3.9809,-3.9863,-3.9895,-3.9878,-3.9912,-3.9949,-3.9994,-4.0046,-4.0088,-4.0179,-4.0184,-4.0232,-4.0218,-4.0297,-4.0225,-4.023,-4.022,-4.0218,-4.0224,-4.0312,-4.0314,-4.0316,-4.0318,0,-3.986,-3.9854,-3.9901,-3.9948,-3.9987,-4.0022,-4.0054,-4.0083,-4.007,-4.011,-4.0167,-4.0199,-4.0262,-4.0315,-4.0359,-4.0373,-4.0344,-4.034,-4.0359,-4.0367,-4.0368,-4.0369,-4.013,-4.0335,-4.0333,-4.0332,-4.0331,-4.033,-3.9996,-4.0046,-4.0073,-4.0126,-4.0149,-4.0179,-4.0226,-4.0232,-4.028,-4.0331,-4.0317,-4.0382,-4.0408,-4.0464,-4.0482,-4.0532,-4.0503,-4.053,-4.0537,-4.0544,-4.0553,-4.0359,-4.0539,-4.0539,-4.0538,-4.0538,-4.0538,0,-4.0181,-4.0196,-4.0245,-4.0291,-4.0333,-4.0301,-4.0335,-4.0372,-4.0429,-4.0456,-4.0498,-4.0563,-4.0614,-4.0622,-4.0671,-4.0709,-4.0696,-4.0722,-4.072,-4.0723,-4.0576,-4.0555,-4.0731,-4.0731,-4.0731,-4.0731,-4.0731,-4.0731,-4.0283,-4.0367,-4.0365,-4.0459,-4.0472,-4.0536,-4.0558,-4.0586,-4.0607,-4.0681,-4.0724,-4.0729,-4.0748,-4.0797,-4.0842,-4.0843,-4.0863,-4.0894,-4.089,-4.0753,-4.0734,-4.0715,-4.0696,-4.0899,-4.0899,-4.1034,-4.1035,-4.1036]}]]